Location: ?????
(44.4284°N, 135.2222°E)
Time: 06:50:25
(UTC+00:00)

Cosmos 1900 - Pass Details

Date: 19 May 2025
Orbit: 677 x 738 km, 66.1° (Epoch: 23 June)

Event Time Altitude Azimuth Distance (km) Brightness Sun altitude
Rises 12:18:39 0° 327° (NNW) 3,157 9.5 -16.4°
Reaches altitude 10° 12:21:01 10° 329° (NNW) 2,238 8.2 -16.6°
Maximum altitude 12:26:09 81° 56° (NE) 749 4.4 -17.2°
Enters shadow 12:28:37 32° 141° (SE) 1,260 5.0 -17.4°
